GW0378 Weather Reports


time (UTC)temp
C
wind
direction
speed
KPH
gust
KPH
rain 1hr
cm
rain 24hr
cm
rain mn
cm
humidity
%
barometer
mb
20260508213250 21 261 6.4 6.4 0.00 0.00 0.00 41 1013.4
20260508212747 21 286 0.0 4.8 0.00 0.00 0.00 41 1013.6
20260508212243 20 4 3.2 6.4 0.00 0.00 0.00 40 1013.7
20260508211739 20 0 3.2 6.4 0.00 0.00 0.00 41 1013.6
20260508211235 20 236 4.8 4.8 0.00 0.00 0.00 41 1013.6
20260508210733 20 277 1.6 8.0 0.00 0.00 0.00 41 1013.7
20260508210229 20 11 3.2 8.0 0.00 0.00 0.00 40 1013.8
20260508205726 20 346 1.6 4.8 0.00 0.00 0.00 39 1013.8
20260508205223 20 20 0.0 4.8 0.00 0.00 0.00 39 1013.8
20260508204719 20 312 3.2 4.8 0.00 0.00 0.00 41 1013.9
20260508204215 20 35 0.0 4.8 0.00 0.00 0.00 40 1013.9
20260508203712 20 349 4.8 9.7 0.00 0.00 0.00 42 1013.8
20260508203208 20 279 6.4 9.7 0.00 0.00 0.00 44 1013.9
20260508202704 20 254 8.0 9.7 0.00 0.00 0.00 43 1014.1
20260508202201 20 286 4.8 8.0 0.00 0.00 0.00 43 1014.4
20260508201658 19 350 3.2 6.4 0.00 0.00 0.00 43 1014.0
20260508201155 19 272 8.0 11.3 0.00 0.00 0.00 43 1013.9
20260508200652 19 248 8.0 11.3 0.00 0.00 0.00 44 1014.0
20260508200147 20 294 3.2 8.0 0.00 0.00 0.00 44 1014.1
20260508195644 20 315 3.2 9.7 0.00 0.00 0.00 44 1014.4
20260508195141 19 327 3.2 6.4 0.00 0.00 0.00 45 1014.1
20260508194637 19 331 1.6 8.0 0.00 0.00 0.00 43 1014.2
20260508194134 19 326 4.8 6.4 0.00 0.00 0.00 44 1014.4
20260508193631 19 270 9.7 11.3 0.00 0.00 0.00 44 1014.5
20260508193128 19 270 8.0 12.9 0.00 0.00 0.00 45 1014.5
20260508192625 20 307 3.2 9.7 0.00 0.00 0.00 46 1014.1
20260508192122 19 8 0.0 6.4 0.00 0.00 0.00 43 1014.5
20260508191618 19 290 4.8 8.0 0.00 0.00 0.00 44 1014.6
20260508191115 19 311 4.8 8.0 0.00 0.00 0.00 44 1014.6
20260508190613 19 57 6.4 12.9 0.00 0.00 0.00 46 1014.4
20260508190109 18 270 3.2 8.0 0.00 0.00 0.00 45 1014.6
20260508185606 18 270 4.8 9.7 0.00 0.00 0.00 45 1014.9
20260508185103 18 290 8.0 11.3 0.00 0.00 0.00 46 1014.8
20260508184601 18 333 8.0 11.3 0.00 0.00 0.00 45 1014.8
20260508184057 19 59 3.2 6.4 0.00 0.00 0.00 45 1014.9
20260508183554 18 327 3.2 11.3 0.00 0.00 0.00 46 1015.1
20260508183050 18 66 1.6 11.3 0.00 0.00 0.00 46 1015.1
20260508182547 18 29 4.8 8.0 0.00 0.00 0.00 48 1015.0
20260508182043 17 19 3.2 9.7 0.00 0.00 0.00 48 1015.4
20260508181538 17 192 3.2 8.0 0.00 0.00 0.00 48 1015.5
20260508181036 17 142 8.0 8.0 0.00 0.00 0.00 48 1015.2
20260508180533 17 323 4.8 12.9 0.00 0.00 0.00 50 1015.4
20260508180029 17 0 3.2 6.4 0.00 0.00 0.00 51 1015.4
20260508175526 17 71 3.2 6.4 0.00 0.00 0.00 50 1015.5
20260508175023 17 338 3.2 8.0 0.00 0.00 0.00 51 1015.5
20260508174520 17 358 4.8 9.7 0.00 0.00 0.00 51 1015.7
20260508174017 16 270 4.8 8.0 0.00 0.00 0.00 52 1015.9
20260508173514 16 7 3.2 6.4 0.00 0.00 0.00 53 1015.8
20260508173010 16 321 3.2 9.7 0.00 0.00 0.00 53 1015.8
20260508172508 16 286 6.4 11.3 0.00 0.00 0.00 53 1015.7
20260508172004 16 78 3.2 8.0 0.00 0.00 0.00 55 1015.9
20260508171501 16 56 3.2 8.0 0.00 0.00 0.00 53 1015.9
20260508170957 16 69 0.0 1.6 0.00 0.00 0.00 54 1015.9
20260508170454 15 318 4.8 6.4 0.00 0.00 0.00 56 1016.0
20260508165951 16 340 8.0 11.3 0.00 0.00 0.00 55 1016.1
20260508165449 15 100 0.0 6.4 0.00 0.00 0.00 56 1016.2
20260508164944 15 226 8.0 11.3 0.00 0.00 0.00 56 1016.1
20260508164442 15 303 4.8 4.8 0.00 0.00 0.00 58 1016.1
20260508163939 14 127 4.8 6.4 0.00 0.00 0.00 59 1016.1
20260508163437 13 280 6.4 9.7 0.00 0.00 0.00 60 1016.5
20260508162932 13 18 4.8 8.0 0.00 0.00 0.00 61 1016.4
20260508162430 13 299 3.2 8.0 0.00 0.00 0.00 60 1016.2
20260508161926 13 266 0.0 9.7 0.00 0.00 0.00 62 1016.4
20260508161423 13 197 0.0 3.2 0.00 0.00 0.00 59 1016.7
20260508160921 13 213 3.2 6.4 0.00 0.00 0.00 61 1016.4
20260508160420 12 286 1.6 4.8 0.00 0.00 0.00 62 1016.5
20260508155915 12 304 3.2 8.0 0.00 0.00 0.00 63 1016.5
20260508155413 13 348 3.2 6.4 0.00 0.00 0.00 64 1016.6
20260508154910 12 0 0.0 6.4 0.00 0.00 0.00 63 1016.6
20260508154407 12 12 1.6 8.0 0.00 0.00 0.00 63 1016.7
20260508153904 12 0 0.0 6.4 0.00 0.00 0.00 67 1016.6
20260508153401 12 290 4.8 6.4 0.00 0.00 0.00 67 1016.6
20260508152857 12 0 3.2 4.8 0.00 0.00 0.00 66 1016.6
20260508152353 11 307 3.2 6.4 0.00 0.00 0.00 67 1016.8
20260508151850 11 270 1.6 6.4 0.00 0.00 0.00 68 1016.8
20260508151347 11 172 0.0 4.8 0.00 0.00 0.00 67 1016.7
20260508150843 11 300 1.6 4.8 0.00 0.00 0.00 69 1016.6
20260508150340 10 293 6.4 6.4 0.00 0.00 0.00 71 1016.9
20260508145836 10 354 4.8 6.4 0.00 0.00 0.00 70 1016.8
20260508145332 10 279 0.0 4.8 0.00 0.00 0.00 71 1016.7
20260508144829 11 295 3.2 4.8 0.00 0.00 0.00 70 1016.8
20260508144327 11 57 1.6 4.8 0.00 0.00 0.00 67 1016.8
20260508143824 10 82 0.0 3.2 0.00 0.00 0.00 71 1016.7
20260508143321 10 15 0.0 3.2 0.00 0.00 0.00 73 1016.7
20260508142818 10 0 0.0 4.8 0.00 0.00 0.00 74 1016.6
20260508142315 10 66 1.6 4.8 0.00 0.00 0.00 72 1016.8
20260508141811 10 56 3.2 3.2 0.00 0.00 0.00 73 1016.6
20260508141309 9 180 3.2 3.2 0.00 0.00 0.00 76 1016.7
20260508140806 8 187 0.0 1.6 0.00 0.00 0.00 77 1016.9
20260508140303 7 105 1.6 3.2 0.00 0.00 0.00 81 1016.7
20260508135758 7 96 3.2 3.2 0.00 0.00 0.00 83 1016.8
20260508135255 7 95 3.2 4.8 0.00 0.00 0.00 82 1016.8
20260508134750 7 81 3.2 4.8 0.00 0.00 0.00 84 1016.9
20260508134248 6 98 0.0 1.6 0.00 0.00 0.00 85 1016.7
20260508133744 6 120 0.0 1.6 0.00 0.00 0.00 84 1016.7
20260508133242 6 120 1.6 3.2 0.00 0.00 0.00 84 1016.7
20260508132740 7 270 0.0 3.2 0.00 0.00 0.00 84 1016.8
20260508132237 7 264 3.2 3.2 0.00 0.00 0.00 84 1016.7
20260508131732 6 180 0.0 3.2 0.00 0.00 0.00 85 1016.7
20260508131229 6 204 3.2 3.2 0.00 0.00 0.00 86 1016.6
20260508130726 6 102 4.8 6.4 0.00 0.00 0.00 86 1016.4
20260508130223 6 69 1.6 4.8 0.00 0.00 0.00 86 1016.5
20260508125718 6 105 3.2 3.2 0.00 0.00 0.00 86 1016.5
20260508125215 6 139 3.2 3.2 0.00 0.00 0.00 85 1016.4
20260508124713 6 120 0.0 3.2 0.00 0.00 0.00 86 1016.2
20260508124210 6 135 0.0 3.2 0.00 0.00 0.00 85 1016.2
20260508123709 6 165 0.0 0.0 0.00 0.00 0.00 85 1016.4
20260508123206 6 143 0.0 4.8 0.00 0.00 0.00 85 1016.2
20260508122702 6 105 3.2 3.2 0.00 0.00 0.00 86 1016.4
20260508122159 6 151 4.8 6.4 0.00 0.00 0.00 86 1016.1
20260508121657 5 117 3.2 4.8 0.00 0.00 0.00 86 1016.0
20260508121155 6 117 3.2 3.2 0.00 0.00 0.00 86 1016.0
20260508120652 6 114 1.6 4.8 0.00 0.00 0.00 85 1015.9
20260508120150 6 102 3.2 4.8 0.00 0.00 0.00 84 1016.1
20260508115648 6 104 4.8 4.8 0.00 0.00 0.00 84 1016.0
20260508115144 6 97 4.8 4.8 0.00 0.00 0.00 84 1016.0
20260508114641 6 131 0.0 3.2 0.00 0.00 0.00 83 1016.1
20260508114137 7 120 3.2 4.8 0.00 0.00 0.00 82 1016.0
20260508113635 6 90 3.2 4.8 0.00 0.00 0.00 83 1015.9
20260508113133 6 117 3.2 6.4 0.00 0.00 0.00 83 1015.8
20260508112629 6 114 0.0 3.2 0.00 0.00 0.00 83 1016.0
20260508112126 6 111 1.6 3.2 0.00 0.00 0.00 82 1015.9
20260508111622 6 135 0.0 4.8 0.00 0.00 0.00 83 1016.2
20260508111120 6 90 1.6 4.8 0.00 0.00 0.00 83 1016.1
20260508110618 6 101 3.2 3.2 0.00 0.00 0.00 82 1016.1
20260508110113 7 86 0.0 6.4 0.00 0.00 0.00 81 1015.9
20260508105608 7 113 4.8 9.7 0.00 0.00 0.00 81 1015.8
20260508105106 7 95 4.8 8.0 0.00 0.00 0.00 81 1015.9
20260508104603 7 107 6.4 6.4 0.00 0.00 0.00 81 1016.0
20260508104100 7 97 6.4 6.4 0.00 0.00 0.00 81 1016.1
20260508103557 7 103 4.8 6.4 0.00 0.00 0.00 79 1015.9
20260508103054 7 90 3.2 3.2 0.00 0.00 0.00 79 1015.9
20260508102552 7 120 1.6 4.8 0.00 0.00 0.00 79 1015.9
20260508102049 7 108 3.2 4.8 0.00 0.00 0.00 79 1015.8
20260508101546 8 124 3.2 8.0 0.00 0.00 0.00 77 1015.7
20260508101043 7 94 4.8 4.8 0.00 0.00 0.00 78 1015.7
20260508100542 7 103 3.2 4.8 0.00 0.00 0.00 79 1015.6
20260508100038 8 90 3.2 4.8 0.00 0.00 0.00 77 1015.7
20260508095535 8 84 4.8 4.8 0.00 0.00 0.00 77 1015.6
20260508095032 8 111 1.6 3.2 0.00 0.00 0.00 78 1015.4
20260508094529 7 85 3.2 3.2 0.00 0.00 0.00 78 1015.4
20260508094026 8 111 4.8 4.8 0.00 0.00 0.00 77 1015.6
20260508093523 8 106 4.8 4.8 0.00 0.00 0.00 77 1015.5
20260508093021 7 104 4.8 4.8 0.00 0.00 0.00 78 1015.6
20260508092518 7 95 3.2 3.2 0.00 0.00 0.00 78 1015.4
20260508092017 7 132 3.2 4.8 0.00 0.00 0.00 78 1015.2
20260508091513 8 121 3.2 4.8 0.00 0.00 0.00 77 1015.4
20260508091010 8 95 3.2 4.8 0.00 0.00 0.00 76 1015.4
20260508090508 8 107 3.2 4.8 0.00 0.00 0.00 75 1015.2
20260508090005 8 69 1.6 4.8 0.00 0.00 0.00 75 1015.5
20260508085501 8 109 3.2 3.2 0.00 0.00 0.00 74 1015.4
20260508084958 8 87 4.8 4.8 0.00 0.00 0.00 75 1015.5
20260508084455 8 97 1.6 4.8 0.00 0.00 0.00 76 1015.5
20260508083953 8 160 0.0 4.8 0.00 0.00 0.00 75 1015.5
20260508083449 8 115 4.8 8.0 0.00 0.00 0.00 76 1015.5
20260508082944 8 117 4.8 6.4 0.00 0.00 0.00 75 1015.2
20260508082442 8 118 6.4 8.0 0.00 0.00 0.00 74 1015.4
20260508081939 9 119 6.4 8.0 0.00 0.00 0.00 73 1015.4
20260508081436 8 96 8.0 9.7 0.00 0.00 0.00 74 1015.4
20260508080932 8 117 6.4 9.7 0.00 0.00 0.00 74 1015.4
20260508080431 9 72 4.8 8.0 0.00 0.00 0.00 73 1015.2
20260508075927 9 121 6.4 6.4 0.00 0.00 0.00 72 1015.2
20260508075424 9 109 4.8 8.0 0.00 0.00 0.00 72 1015.2
20260508074922 9 90 3.2 6.4 0.00 0.00 0.00 72 1015.2
20260508074419 10 101 4.8 6.4 0.00 0.00 0.00 70 1015.2
20260508073916 10 87 4.8 4.8 0.00 0.00 0.00 68 1015.1
20260508073414 11 105 3.2 3.2 0.00 0.00 0.00 66 1015.1
20260508072910 11 295 0.0 4.8 0.00 0.00 0.00 65 1015.4
20260508072406 10 82 1.6 3.2 0.00 0.00 0.00 67 1015.1
20260508071904 11 96 3.2 3.2 0.00 0.00 0.00 66 1015.2
20260508071402 11 117 1.6 3.2 0.00 0.00 0.00 66 1015.0
20260508070859 11 113 3.2 9.7 0.00 0.00 0.00 63 1015.0
20260508070357 11 102 6.4 14.5 0.00 0.00 0.00 62 1015.0
20260508065855 11 108 11.3 14.5 0.00 0.00 0.00 63 1015.1
20260508065353 11 74 9.7 11.3 0.00 0.00 0.00 63 1015.0
20260508064851 11 96 9.7 12.9 0.00 0.00 0.00 63 1015.0
20260508064348 11 105 9.7 14.5 0.00 0.00 0.00 62 1015.0
20260508063846 11 129 9.7 16.1 0.00 0.00 0.00 63 1015.1
20260508063343 11 94 8.0 11.3 0.00 0.00 0.00 63 1015.0
20260508062840 11 113 6.4 9.7 0.00 0.00 0.00 63 1014.9
20260508062337 11 95 9.7 9.7 0.00 0.00 0.00 63 1014.9
20260508061834 11 105 8.0 9.7 0.00 0.00 0.00 65 1015.0
20260508061332 10 105 8.0 8.0 0.00 0.00 0.00 66 1015.0
20260508060828 11 107 8.0 8.0 0.00 0.00 0.00 65 1015.1
20260508060326 11 101 6.4 8.0 0.00 0.00 0.00 64 1014.9
20260508055820 11 75 4.8 6.4 0.00 0.00 0.00 62 1015.0
20260508055319 11 73 4.8 6.4 0.00 0.00 0.00 61 1014.9
20260508054815 11 86 4.8 6.4 0.00 0.00 0.00 62 1014.9
20260508054313 11 105 4.8 6.4 0.00 0.00 0.00 61 1014.6
20260508053809 11 104 6.4 8.0 0.00 0.00 0.00 61 1014.8
20260508053307 11 94 3.2 8.0 0.00 0.00 0.00 61 1014.7
20260508052804 11 92 8.0 8.0 0.00 0.00 0.00 61 1014.5
20260508052301 12 105 4.8 6.4 0.00 0.00 0.00 60 1014.4
20260508051757 12 103 4.8 6.4 0.00 0.00 0.00 59 1014.5
20260508051252 12 99 4.8 4.8 0.00 0.00 0.00 59 1014.5
20260508050749 12 105 6.4 8.0 0.00 0.00 0.00 58 1014.5
20260508050246 12 105 6.4 6.4 0.00 0.00 0.00 57 1014.7
20260508045741 12 105 4.8 8.0 0.00 0.00 0.00 57 1014.6
20260508045240 12 102 4.8 8.0 0.00 0.00 0.00 57 1014.5
20260508044737 12 105 6.4 9.7 0.00 0.00 0.00 56 1014.5
20260508044234 12 103 3.2 4.8 0.00 0.00 0.00 57 1014.4
20260508043730 13 80 8.0 11.3 0.00 0.00 0.00 55 1014.2
20260508043228 13 170 3.2 8.0 0.00 0.00 0.00 56 1014.2
20260508042724 13 107 8.0 8.0 0.00 0.00 0.00 55 1014.1
20260508042221 13 93 4.8 6.4 0.00 0.00 0.00 56 1014.4
20260508041718 13 90 6.4 6.4 0.00 0.00 0.00 56 1014.4
20260508041215 13 93 4.8 6.4 0.00 0.00 0.00 55 1014.4
20260508040711 13 90 6.4 8.0 0.00 0.00 0.00 54 1014.1
20260508040208 13 112 4.8 8.0 0.00 0.00 0.00 54 1014.2
20260508035706 13 74 3.2 8.0 0.00 0.00 0.00 54 1014.0
20260508035203 13 99 4.8 8.0 0.00 0.00 0.00 54 1013.9
20260508034659 14 84 8.0 8.0 0.00 0.00 0.00 52 1013.9
20260508034156 15 106 6.4 8.0 0.00 0.00 0.00 52 1013.9
20260508033654 15 105 6.4 8.0 0.00 0.00 0.00 51 1013.9
20260508033152 15 148 3.2 6.4 0.00 0.00 0.00 48 1013.6
20260508032649 15 72 4.8 4.8 0.00 0.00 0.00 48 1013.7
20260508032146 16 81 0.0 1.6 0.00 0.00 0.00 46 1013.7
20260508031643 16 105 0.0 3.2 0.00 0.00 0.00 45 1013.2
20260508031139 16 174 0.0 1.6 0.00 0.00 0.00 45 1013.4
20260508030636 17 106 0.0 3.2 0.00 0.00 0.00 45 1013.2
20260508030134 17 159 3.2 4.8 0.00 0.00 0.00 43 1013.4
20260508025629 17 261 0.0 3.2 0.00 0.00 0.00 43 1013.4
20260508025127 18 209 1.6 3.2 0.00 0.00 0.00 40 1013.2
20260508024622 18 304 3.2 9.7 0.00 0.00 0.00 39 1013.1
20260508024120 19 296 4.8 11.3 0.00 0.00 0.00 37 1013.0
20260508023616 20 264 6.4 14.5 0.00 0.00 0.00 37 1013.2
20260508023114 20 274 8.0 19.3 0.00 0.00 0.00 36 1012.9
20260508022609 20 296 6.4 12.9 0.00 0.00 0.00 37 1013.4
20260508022107 20 280 11.3 17.7 0.00 0.00 0.00 36 1012.8
20260508021602 20 312 14.5 16.1 0.00 0.00 0.00 35 1012.8
20260508021058 20 282 14.5 14.5 0.00 0.00 0.00 35 1012.9
20260508020556 21 281 9.7 14.5 0.00 0.00 0.00 35 1012.9
20260508020054 21 281 6.4 12.9 0.00 0.00 0.00 34 1012.9
20260508015551 21 283 3.2 16.1 0.00 0.00 0.00 34 1012.5
20260508015048 21 289 11.3 14.5 0.00 0.00 0.00 33 1012.7
20260508014544 21 278 11.3 16.1 0.00 0.00 0.00 33 1012.8
20260508014040 21 249 8.0 17.7 0.00 0.00 0.00 32 1012.8
20260508013536 21 308 14.5 17.7 0.00 0.00 0.00 32 1012.9
20260508013034 22 290 3.2 14.5 0.00 0.00 0.00 32 1012.6
20260508012531 21 252 9.7 16.1 0.00 0.00 0.00 32 1012.5
20260508012028 21 277 11.3 19.3 0.00 0.00 0.00 31 1012.5
20260508011527 22 256 4.8 19.3 0.00 0.00 0.00 31 1012.5
20260508011024 22 282 6.4 17.7 0.00 0.00 0.00 32 1012.5
20260508010520 22 286 9.7 19.3 0.00 0.00 0.00 31 1012.6
20260508010018 22 265 6.4 9.7 0.00 0.00 0.00 31 1012.5
20260508005514 22 266 8.0 14.5 0.00 0.00 0.00 31 1012.5
20260508005011 22 294 12.9 19.3 0.00 0.00 0.00 31 1012.8
20260508004507 22 268 8.0 16.1 0.00 0.00 0.00 31 1012.6
20260508004004 21 279 12.9 17.7 0.00 0.00 0.00 31 1012.8
20260508003500 22 255 4.8 14.5 0.00 0.00 0.00 32 1012.7
20260508002958 22 275 6.4 14.5 0.00 0.00 0.00 32 1012.8
20260508002454 22 268 20.9 20.9 0.00 0.00 0.00 31 1012.8
20260508001950 22 315 6.4 11.3 0.00 0.00 0.00 32 1012.8
20260508001446 22 284 4.8 16.1 0.00 0.00 0.00 33 1012.8
20260508000943 22 259 4.8 16.1 0.00 0.00 0.00 33 1012.6
20260508000439 22 287 8.0 14.5 0.00 0.00 0.00 33 1012.9
20260507235936 22 312 6.4 16.1 0.00 0.00 0.00 33 1012.4
20260507235433 21 291 4.8 14.5 0.00 0.00 0.00 34 1012.7
20260507234931 22 291 4.8 14.5 0.00 0.00 0.00 34 1012.8
20260507234427 21 340 0.0 6.4 0.00 0.00 0.00 35 1012.8
20260507233923 21 353 6.4 8.0 0.00 0.00 0.00 36 1012.8
20260507233420 20 20 1.6 6.4 0.00 0.00 0.00 35 1013.0
20260507232919 20 348 0.0 6.4 0.00 0.00 0.00 37 1012.8
20260507232415 20 289 0.0 9.7 0.00 0.00 0.00 36 1012.9
20260507231912 20 275 6.4 11.3 0.00 0.00 0.00 36 1012.9
20260507231409 21 343 4.8 11.3 0.00 0.00 0.00 34 1012.9
20260507230905 21 328 6.4 11.3 0.00 0.00 0.00 34 1012.7
20260507230403 21 286 3.2 14.5 0.00 0.00 0.00 33 1012.8
20260507225903 22 355 4.8 11.3 0.00 0.00 0.00 33 1012.6
20260507225359 20 307 9.7 12.9 0.00 0.00 0.00 35 1012.8
20260507224855 20 339 3.2 8.0 0.00 0.00 0.00 34 1012.8
20260507224352 20 315 4.8 8.0 0.00 0.00 0.00 35 1013.0
20260507223848 21 292 9.7 14.5 0.00 0.00 0.00 33 1012.9
20260507223344 22 55 3.2 6.4 0.00 0.00 0.00 33 1013.1
20260507222841 21 341 4.8 9.7 0.00 0.00 0.00 35 1013.0
20260507222338 20 290 4.8 9.7 0.00 0.00 0.00 36 1013.1
20260507221835 21 252 4.8 14.5 0.00 0.00 0.00 36 1013.0
20260507221331 21 273 11.3 16.1 0.00 0.00 0.00 34 1012.9
20260507220827 21 304 4.8 9.7 0.00 0.00 0.00 34 1013.2
20260507220326 21 285 3.2 12.9 0.00 0.00 0.00 34 1013.1
20260507215822 21 350 9.7 14.5 0.00 0.00 0.00 34 1013.0
20260507215319 21 357 3.2 11.3 0.00 0.00 0.00 34 1013.2
20260507214816 21 277 4.8 12.9 0.00 0.00 0.00 36 1013.5
20260507214314 21 273 4.8 16.1 0.00 0.00 0.00 36 1013.4
20260507213808 21 277 9.7 11.3 0.00 0.00 0.00 36 1013.5